• In Österreich
  • Länderverzeichnis
  • Für 7 Tage
  • Wassertemperatur
  • Satellitenkarten
  • Wetterkarte
  • News
  • Widgets
  • user-avatar
    Anmelden

    Stündliche Wetter Neuquén

    Heute, 21 Oktober, Samstag

    Zeit Temperatur Niederschläge Wind Luftdruck Luftfeuchtigkeit
    00:00 +11°C° 0 mm 8 m/S 737 mmHg 34%
    01:00 +11°C° 0 mm 8 m/S 737 mmHg 36%
    02:00 +10°C° 0 mm 7 m/S 738 mmHg 36%
    03:00 +10°C° 0 mm 7 m/S 738 mmHg 35%
    04:00 +9°C° 0 mm 6 m/S 739 mmHg 35%
    05:00 +10°C° 0 mm 6 m/S 739 mmHg 32%
    06:00 +11°C° 0 mm 6 m/S 740 mmHg 29%
    07:00 +11°C° 0 mm 6 m/S 741 mmHg 26%
    08:00 +13°C° 0 mm 5 m/S 741 mmHg 24%
    09:00 +14°C° 0 mm 5 m/S 741 mmHg 21%
    10:00 +15°C° 0 mm 4 m/S 741 mmHg 18%
    11:00 +17°C° 0 mm 3 m/S 741 mmHg 17%
    12:00 +18°C° 0 mm 3 m/S 741 mmHg 15%
    13:00 +19°C° 0 mm 2 m/S 740 mmHg 13%
    14:00 +19°C° 0 mm 2 m/S 740 mmHg 13%
    15:00 +19°C° 0 mm 2 m/S 740 mmHg 13%
    16:00 +19°C° 0 mm 2 m/S 739 mmHg 12%
    17:00 +19°C° 0 mm 3 m/S 740 mmHg 13%
    18:00 +18°C° 0 mm 3 m/S 740 mmHg 14%
    19:00 +17°C° 0 mm 4 m/S 740 mmHg 15%
    20:00 +17°C° 0 mm 4 m/S 740 mmHg 16%
    21:00 +15°C° 0 mm 4 m/S 740 mmHg 17%
    22:00 +15°C° 0 mm 5 m/S 740 mmHg 18%
    23:00 +14°C° 0 mm 5 m/S 740 mmHg 20%

    Morgen, 22 Oktober, Sonntag

    Zeit Temperatur Niederschläge Wind Luftdruck Luftfeuchtigkeit
    00:00 +13°C° 0 mm 6 m/S 739 mmHg 22%
    01:00 +13°C° 0 mm 6 m/S 739 mmHg 24%
    02:00 +11°C° 0 mm 6 m/S 738 mmHg 26%
    03:00 +11°C° 0 mm 7 m/S 738 mmHg 28%
    04:00 +10°C° 0 mm 7 m/S 738 mmHg 30%
    05:00 +11°C° 0 mm 8 m/S 737 mmHg 29%
    06:00 +13°C° 0 mm 9 m/S 737 mmHg 28%
    07:00 +15°C° 0 mm 9 m/S 737 mmHg 27%
    08:00 +16°C° 0 mm 10 m/S 736 mmHg 26%
    09:00 +18°C° 0 mm 10 m/S 736 mmHg 25%
    10:00 +21°C° 0 mm 11 m/S 735 mmHg 24%
    11:00 +22°C° 0 mm 10 m/S 734 mmHg 23%
    12:00 +23°C° 0 mm 10 m/S 733 mmHg 21%
    13:00 +24°C° 0 mm 10 m/S 732 mmHg 19%
    14:00 +26°C° 0 mm 8 m/S 732 mmHg 17%
    15:00 +27°C° 0 mm 7 m/S 731 mmHg 15%
    16:00 +28°C° 0 mm 6 m/S 730 mmHg 13%
    17:00 +27°C° 0 mm 5 m/S 730 mmHg 15%
    18:00 +25°C° 0 mm 5 m/S 730 mmHg 16%
    19:00 +23°C° 0 mm 4 m/S 730 mmHg 18%
    20:00 +22°C° 0 mm 5 m/S 731 mmHg 20%
    21:00 +22°C° 0 mm 5 m/S 731 mmHg 21%
    22:00 +21°C° 0 mm 6 m/S 731 mmHg 23%
    23:00 +20°C° 0 mm 6 m/S 731 mmHg 24%

    übermorgen, 23 Oktober, Montag

    Zeit Temperatur Niederschläge Wind Luftdruck Luftfeuchtigkeit
    00:00 +19°C° 0 mm 5 m/S 731 mmHg 25%
    01:00 +18°C° 0 mm 4 m/S 730 mmHg 25%
    02:00 +17°C° 0 mm 4 m/S 730 mmHg 27%
    03:00 +16°C° 0 mm 3 m/S 730 mmHg 28%
    04:00 +16°C° 0 mm 3 m/S 730 mmHg 29%
    05:00 +17°C° 0 mm 3 m/S 731 mmHg 27%
    06:00 +18°C° 0 mm 3 m/S 731 mmHg 26%
    07:00 +19°C° 0 mm 3 m/S 731 mmHg 24%
    08:00 +21°C° 0 mm 4 m/S 731 mmHg 22%
    09:00 +23°C° 0 mm 4 m/S 731 mmHg 20%
    10:00 +26°C° 0 mm 5 m/S 731 mmHg 18%
    11:00 +27°C° 0 mm 6 m/S 731 mmHg 17%
    12:00 +28°C° 0 mm 7 m/S 730 mmHg 15%
    13:00 +29°C° 0 mm 8 m/S 730 mmHg 14%
    14:00 +29°C° 0 mm 8 m/S 730 mmHg 15%
    15:00 +28°C° 0 mm 8 m/S 729 mmHg 16%
    16:00 +28°C° 0 mm 8 m/S 729 mmHg 17%
    17:00 +27°C° 0 mm 8 m/S 729 mmHg 20%
    18:00 +26°C° 0 mm 7 m/S 730 mmHg 23%
    19:00 +24°C° 0 mm 6 m/S 730 mmHg 25%
    20:00 +22°C° 0 mm 6 m/S 731 mmHg 30%
    21:00 +21°C° 0 mm 6 m/S 731 mmHg 34%
    22:00 +20°C° 0 mm 6 m/S 731 mmHg 38%
    23:00 +19°C° 0 mm 6 m/S 732 mmHg 41%

    24 Oktober, Dienstag

    Zeit Temperatur Niederschläge Wind Luftdruck Luftfeuchtigkeit
    00:00 +17°C° 0 mm 6 m/S 732 mmHg 44%
    01:00 +16°C° 0 mm 6 m/S 732 mmHg 47%
    02:00 +15°C° 0 mm 6 m/S 732 mmHg 47%
    03:00 +14°C° 0 mm 7 m/S 733 mmHg 48%
    04:00 +14°C° 0 mm 7 m/S 733 mmHg 48%
    05:00 +13°C° 0 mm 8 m/S 734 mmHg 44%
    06:00 +15°C° 0 mm 8 m/S 734 mmHg 39%
    07:00 +15°C° 0 mm 9 m/S 735 mmHg 35%
    08:00 +17°C° 0 mm 8 m/S 735 mmHg 32%
    09:00 +18°C° 0 mm 8 m/S 735 mmHg 28%
    10:00 +21°C° 0 mm 7 m/S 735 mmHg 25%
    11:00 +21°C° 0 mm 7 m/S 734 mmHg 24%
    12:00 +22°C° 0 mm 6 m/S 734 mmHg 23%
    13:00 +23°C° 0 mm 5 m/S 733 mmHg 22%
    14:00 +23°C° 0 mm 4 m/S 733 mmHg 22%
    15:00 +24°C° 0 mm 3 m/S 732 mmHg 22%
    16:00 +25°C° 0 mm 2 m/S 732 mmHg 22%
    17:00 +24°C° 0 mm 2 m/S 732 mmHg 23%
    18:00 +22°C° 0 mm 3 m/S 733 mmHg 24%
    19:00 +22°C° 0 mm 3 m/S 733 mmHg 25%
    20:00 +21°C° 0 mm 3 m/S 733 mmHg 25%
    21:00 +21°C° 0 mm 4 m/S 733 mmHg 25%
    22:00 +21°C° 0 mm 4 m/S 733 mmHg 25%
    23:00 +20°C° 0 mm 4 m/S 733 mmHg 26%

    25 Oktober, Mittwoch

    Zeit Temperatur Niederschläge Wind Luftdruck Luftfeuchtigkeit
    00:00 +19°C° 0 mm 5 m/S 733 mmHg 28%
    01:00 +17°C° 0 mm 5 m/S 733 mmHg 29%
    02:00 +18°C° 0 mm 4 m/S 733 mmHg 31%
    03:00 +17°C° 0 mm 4 m/S 733 mmHg 32%
    04:00 +17°C° 0 mm 4 m/S 733 mmHg 33%
    05:00 +17°C° 0 mm 4 m/S 733 mmHg 32%
    06:00 +18°C° 0 mm 4 m/S 734 mmHg 30%
    07:00 +19°C° 0 mm 5 m/S 734 mmHg 29%
    08:00 +20°C° 0 mm 4 m/S 734 mmHg 27%
    09:00 +21°C° 0 mm 3 m/S 733 mmHg 26%
    10:00 +21°C° 0 mm 2 m/S 733 mmHg 24%
    11:00 +22°C° 0 mm 3 m/S 733 mmHg 24%
    12:00 +24°C° 0 mm 3 m/S 732 mmHg 23%
    13:00 +25°C° 0 mm 3 m/S 731 mmHg 22%
    14:00 +25°C° 0 mm 3 m/S 731 mmHg 21%
    15:00 +25°C° 0 mm 3 m/S 731 mmHg 21%
    16:00 +25°C° 0 mm 3 m/S 730 mmHg 20%
    17:00 +25°C° 0 mm 3 m/S 731 mmHg 21%
    18:00 +24°C° 0 mm 3 m/S 731 mmHg 23%
    19:00 +22°C° 0 mm 3 m/S 731 mmHg 24%
    20:00 +22°C° 0 mm 5 m/S 731 mmHg 28%
    21:00 +21°C° 0 mm 7 m/S 731 mmHg 32%
    22:00 +19°C° 0 mm 9 m/S 732 mmHg 36%
    23:00 +18°C° 0 mm 9 m/S 731 mmHg 37%

    26 Oktober, Donnerstag

    Zeit Temperatur Niederschläge Wind Luftdruck Luftfeuchtigkeit
    00:00 +18°C° 0 mm 8 m/S 731 mmHg 39%
    01:00 +17°C° 0 mm 8 m/S 731 mmHg 40%
    02:00 +16°C° 0 mm 8 m/S 732 mmHg 42%
    03:00 +16°C° 0 mm 8 m/S 732 mmHg 44%
    04:00 +15°C° 0 mm 7 m/S 732 mmHg 45%
    05:00 +15°C° 0 mm 8 m/S 732 mmHg 44%
    06:00 +16°C° 0 mm 9 m/S 732 mmHg 42%
    07:00 +16°C° 0 mm 10 m/S 733 mmHg 40%
    08:00 +18°C° 0 mm 9 m/S 733 mmHg 36%
    09:00 +19°C° 0 mm 9 m/S 733 mmHg 32%
    10:00 +22°C° 0 mm 9 m/S 732 mmHg 27%
    11:00 +23°C° 0 mm 8 m/S 732 mmHg 25%
    12:00 +24°C° 0 mm 8 m/S 732 mmHg 23%
    13:00 +26°C° 0 mm 8 m/S 731 mmHg 20%
    14:00 +26°C° 0 mm 7 m/S 731 mmHg 19%
    15:00 +26°C° 0 mm 7 m/S 731 mmHg 19%
    16:00 +26°C° 0 mm 6 m/S 730 mmHg 18%
    17:00 +24°C° 0 mm 6 m/S 730 mmHg 20%
    18:00 +23°C° 0 mm 5 m/S 731 mmHg 21%
    19:00 +22°C° 0 mm 4 m/S 731 mmHg 23%
    20:00 +21°C° 0 mm 5 m/S 731 mmHg 26%
    21:00 +20°C° 0 mm 7 m/S 731 mmHg 30%
    22:00 +19°C° 0 mm 9 m/S 731 mmHg 33%
    23:00 +18°C° 0 mm 8 m/S 731 mmHg 36%
    Mehr zeigen